Location: Kershaw
(34.5481°N, 80.5823°W)
Time: 04:04:11
(UTC+00:00)

Tiros 1 despin weight - Pass Details

Date: 04 October 2022
Orbit: 590 x 637 km, 48.2° (Epoch: 30 November)

Event Time Altitude Azimuth Distance (km) Brightness Sun altitude
Rises 04:29:33 0° 293° (WNW) 2,914 - -58.3°
Reaches altitude 10° 04:32:19 10° 278° (W) 2,010 - -58.5°
Maximum altitude 04:35:47 21° 229° (SW) 1,418 - -58.7°
Drops below altitude 10° 04:39:17 10° 180° (S) 2,012 - -58.9°
Sets 04:42:03 0° 164° (SSE) 2,918 - -59.0°
